Flag for U.S.A. Weather past 2 weeks in Daytona Beach, Florida, U.S.A.

Now
65 °F

Passing clouds.


Feels Like: 65 °F
Forecast: 60 / 76 °F
Wind: 6 mph from South

Location: Daytona Beach Regional Airport

Current Time: Mar 27, 2015 at 6:49:40 AM

Latest Report: Mar 27, 2015 at 5:53 AM


Visibility: 10 mi

Pressure: 29.78 "Hg

Humidity: 97%

Dew point: 64 °F

Location of Daytona BeachLocation

Historic Weather in Daytona Beach — Graph

°F

Daytona Beach temperature yesterday

Maximum temperature yesterday: 84 °F (at 3:53 PM)
Minimum temperature yesterday: 62 °F (at 1:53 AM)
Average temperature yesterday: 70 °F

Past Weeks' High & Low Weather Summary

 TemperatureHumidityPressure
High87 °F (Mar 14, 2:53 PM)100% (Mar 20, 7:53 PM)30.24 "Hg (Mar 20, 7:53 PM)
Low60 °F (Mar 25, 3:53 AM)29% (Mar 15, 1:53 PM)29.83 "Hg (Mar 27, 4:53 AM)
Average71 °F81%30.06 "Hg
* Reported Mar 12 4:53 AM — Mar 27 4:53 AM, Daytona Beach, Weather by CustomWeather, © 2015

Note: Actual official high and low records may vary slightly from our data, if they occured in-between our weather recording intervals... More about our weather records

Advertising

Daytona Beach weather history for previous 24 hours

 ConditionsComfort  
Time TempWeatherWind HumidityBarometerVisibility
4:53 AM
Fri, Mar 27
66 °FLight rain. Overcast.8 mph93%29.83 "Hg10 mi
3:53 AM67 °FMostly cloudy.8 mph90%29.87 "Hg10 mi
2:53 AM67 °FMostly cloudy.8 mph90%29.89 "Hg10 mi
1:53 AM67 °FOvercast.7 mph90%29.88 "Hg10 mi
12:53 AM67 °FOvercast.6 mph90%29.88 "Hg10 mi
11:53 PM
Thu, Mar 26
67 °FOvercast.6 mph93%29.90 "Hg10 mi
10:53 PM69 °FMostly cloudy.6 mph90%29.91 "Hg10 mi
9:53 PM70 °FLight rain. Fog.8 mph93%29.92 "Hg2 mi
8:53 PM71 °FMostly cloudy.3 mph87%29.89 "Hg10 mi
7:53 PM72 °FBroken clouds.6 mph87%29.87 "Hg10 mi
6:53 PM75 °FBroken clouds.No wind76%29.87 "Hg10 mi
5:53 PM75 °FMostly cloudy.3 mph76%29.88 "Hg10 mi
4:53 PM75 °FLight rain. Broken clouds.5 mph79%29.90 "Hg10 mi
3:53 PM84 °FBroken clouds.8 mph57%29.90 "Hg10 mi
2:53 PM78 °FLight rain. Partly sunny.5 mph69%29.94 "Hg3 mi
1:53 PM75 °FLight rain. More clouds than sun.10 mph74%29.98 "Hg3 mi
12:53 PM80 °FMostly cloudy.8 mph64%30.00 "Hg3 mi
11:53 AM82 °FBroken clouds.9 mph63%30.01 "Hg3 mi
10:53 AM77 °FPartly sunny.7 mph74%30.04 "Hg3 mi
9:53 AM72 °FPartly sunny.5 mph91%30.05 "Hg3 mi
8:53 AM67 °FOvercast.No wind93%30.05 "Hg7 mi
7:53 AM63 °FMostly cloudy.No wind100%30.05 "Hg7 mi
6:53 AM62 °FFog.No wind100%30.03 "Hg5 mi
Weather by CustomWeather, © 2015

See weather overviewHow to use our weather pages